, AK

(GMT )
Anchorage

Weather History for PANC - September, 2012

Change the Weather History Date:

Friday, September 7, 2012

  Actual Average Record
Temperature  
Mean Temperature 50 °F 52 °F  
Max Temperature 55 °F 58 °F 65 °F (1979)
Min Temperature 45 °F 45 °F 35 °F (1964)
Degree Days  
Heating Degree Days 15    
Month to date heating degree days 93  
Since 1 July heating degree days 654  
Cooling Degree Days 0    
Month to date cooling degree days 0  
Year to date cooling degree days 0  
Moisture  
Dew Point 39 °F    
Average Humidity 66    
Maximum Humidity 77    
Minimum Humidity 54    
Precipitation  
Precipitation 0.00 in 0.10 in 1.14 in (1961)
Month to date precipitation 0.95 0.73  
Year to date precipitation 11.18 10.02  
Snow  
Snow 0.00 in 0.00 in T in (1970)
Month to date snowfall 0.0 0.0  
Since 1 June snowfall 0.0  
Since 1 July snowfall 0.0 0.0  
Since 1 September snowfall 0.0  
Snow Depth 0.00 in    
Sea Level Pressure  
Sea Level Pressure 30.00 in    
Wind  
Wind Speed 8 mph (SE)    
Max Wind Speed 15 mph    
Max Gust Speed 20 mph    
Visibility 10 miles    
Events Rain    
T = Trace of Precipitation, MM = Missing Value Source: NWS Daily Summary

Daily Weather History Graph

Daily Weather History Graph

Search for Another Location

Airport or City:

Trip Planner

Search our weather history database for the weather conditions in past years. The results will help you decide how hot, cold, wet, or windy it might be!

Date:

Astronomy

Sep. 07, 2012 Rise Set
Actual Time 7:08 AM AKDT 8:45 PM AKDT
Civil Twilight 6:23 AM AKDT 9:30 PM AKDT
Nautical Twilight 5:25 AM AKDT 10:27 PM AKDT
Astronomical Twilight 4:14 AM AKDT 11:37 PM AKDT
Moon 10:39 PM AKDT (9/7) 4:18 PM AKDT (9/7)
Length of Visible Light 15h 07m
Length of Day
13h 36m
Waning Gibbous, 57% of the Moon is Illuminated
Sep 7
Waning Gibbous
Sep 8
Last Quarter
Sep 15
New
Sep 22
First Quarter
Sep 29
Full

Hourly Weather History & Observations

Time (AKDT) Temp. Dew Point Humidity Pressure Visibility Wind Dir Wind Speed Gust Speed Precip Events Conditions
12:53 AM 51.1 °F 39.0 °F 63% 30.12 in 10.0 mi South 9.2 mph - N/A   Mostly Cloudy
1:53 AM 50.0 °F 39.9 °F 68% 30.12 in 10.0 mi SSE 10.4 mph 17.3 mph N/A   Overcast
2:53 AM 50.0 °F 39.9 °F 68% 30.11 in 10.0 mi SE 13.8 mph 18.4 mph N/A   Overcast
3:53 AM 48.9 °F 39.0 °F 69% 30.10 in 10.0 mi SE 4.6 mph - N/A   Overcast
4:53 AM 50.0 °F 37.0 °F 61% 30.09 in 10.0 mi SSE 15.0 mph 19.6 mph N/A   Overcast
5:53 AM 48.9 °F 37.9 °F 66% 30.08 in 10.0 mi SSE 10.4 mph 18.4 mph N/A   Overcast
6:53 AM 48.0 °F 39.0 °F 71% 30.07 in 10.0 mi South 9.2 mph - N/A   Overcast
7:53 AM 48.0 °F 37.9 °F 68% 30.06 in 10.0 mi SSE 10.4 mph - N/A   Mostly Cloudy
8:53 AM 46.9 °F 39.9 °F 77% 30.05 in 10.0 mi East 3.5 mph - N/A   Mostly Cloudy
9:53 AM 48.0 °F 41.0 °F 77% 30.04 in 10.0 mi ENE 4.6 mph - N/A   Mostly Cloudy
10:53 AM 52.0 °F 39.9 °F 63% 30.03 in 10.0 mi NNE 4.6 mph - N/A   Mostly Cloudy
11:53 AM 52.0 °F 37.9 °F 59% 30.02 in 10.0 mi East 3.5 mph - N/A   Mostly Cloudy
12:53 PM 53.1 °F 37.9 °F 57% 30.00 in 10.0 mi Variable 5.8 mph - N/A   Mostly Cloudy
1:53 PM 55.0 °F 39.0 °F 55% 29.99 in 10.0 mi Calm Calm - N/A   Mostly Cloudy
2:53 PM 55.0 °F 39.0 °F 55% 29.96 in 10.0 mi North 5.8 mph - N/A   Mostly Cloudy
3:53 PM 55.0 °F 39.0 °F 55% 29.95 in 10.0 mi Variable 3.5 mph - N/A   Overcast
4:53 PM 54.0 °F 37.0 °F 53% 29.93 in 10.0 mi SSE 10.4 mph - N/A   Overcast
5:53 PM 53.1 °F 37.9 °F 57% 29.91 in 10.0 mi SSE 6.9 mph - N/A   Overcast
6:53 PM 52.0 °F 37.9 °F 59% 29.91 in 10.0 mi SSE 6.9 mph - N/A   Overcast
7:53 PM 48.9 °F 41.0 °F 74% 29.90 in 8.0 mi SW 11.5 mph - 0.01 in Rain Light Rain
8:53 PM 46.9 °F 42.1 °F 83% 29.90 in 10.0 mi NW 6.9 mph - 0.02 in Rain Light Rain
9:53 PM 46.9 °F 39.9 °F 77% 29.90 in 10.0 mi Calm Calm - 0.00 in   Mostly Cloudy
10:53 PM 45.0 °F 39.0 °F 80% 29.89 in 10.0 mi Calm Calm - N/A   Mostly Cloudy
11:53 PM 46.0 °F 39.0 °F 76% 29.88 in 10.0 mi Calm Calm - N/A   Mostly Cloudy